User: anonymous   Login
Location: Hawks Ness
(60.2333°N, 1.1667°W)
Time: 10:09:51
(UTC+00:00)
Language:

COSMOS 2428 - Orbit

View from above orbital plane
View from above orbital plane
View from above satellite
View from above satellite

Ground track
Ground track

The orbit data is extracted from the following two-line orbital elements,

1 31792U 07029A   19347.16691919 -.00000222  00000-0 -94054-4 0  9990
2 31792  70.9297 306.1309 0010162 340.6100  19.4632 14.12410314642428
Epoch (UTC): 13 December 2019 04:00:21
Eccentricity: 0.0010162
inclination: 70.9297°
perigee height: 844 km
apogee height: 858 km
right ascension of ascending node: 306.1309°
argument of perigee: 340.6100°
revolutions per day: 14.12410314
mean anomaly at epoch: 19.4632°
orbit number at epoch: 64242

The dashed part of the orbit path shows where the satellite is in the earth's shadow,  

DLR